Lapse_Rate
5.3 5.3 5.4 5.5 5.6 5.7 5.9 5.9 5.9 5.7 5.5 5.3 4.9 4.8 4.8 4.9 4.6 4.7 4.6 4.5 4.5 4.5 4.6 4.6 4.6 4.6 4.6
5.5 5.6 5.7 5.8 5.8 6.1 6.0 5.8 5.6 5.3 5.0 4.6 4.5 4.3 4.1 4.1 4.0 3.9 3.9 3.9 3.8 3.7 3.8 4.0 4.1 4.1 4.1
5.7 5.7 5.8 5.9 6.0 6.0 5.9 5.6 5.2 4.9 4.5 4.3 4.1 3.9 3.6 3.6 3.4 3.2 3.1 3.0 3.0 3.1 3.2 3.2 3.2 3.4 3.7
5.6 5.8 5.9 5.9 5.9 5.8 5.6 5.2 5.0 4.4 4.3 4.2 3.9 3.6 3.5 3.3 3.0 2.7 2.5 2.5 2.4 2.3 2.2 2.2 2.3 2.3 2.3
5.8 5.8 5.6 5.5 5.4 5.2 5.0 4.5 4.5 4.2 4.0 4.1 3.5 3.3 3.2 3.0 2.8 2.5 2.3 2.1 1.9 1.6 1.5 1.5 1.4 1.4 1.4
5.7 5.6 5.3 5.2 5.0 4.7 4.4 4.3 4.5 4.3 3.7 3.8 3.2 3.2 3.3 3.3 3.2 3.1 3.2 3.0 3.0 3.0 2.9 2.7 2.8 2.7 2.6
5.6 5.1 4.9 4.6 4.6 4.6 4.4 4.1 4.0 3.7 3.4 3.5 3.3 3.6 3.8 4.0 4.1 4.3 4.3 4.5 4.5 4.2 3.9 4.0 4.0 3.8 3.7
5.1 4.9 4.8 4.7 4.5 4.3 4.2 4.0 4.1 3.9 3.7 3.8 4.0 4.4 4.7 5.0 5.3 5.5 5.3 5.4 5.4 5.3 5.1 4.8 4.6 4.5 4.4
4.9 4.9 4.8 4.6 4.4 4.3 4.3 4.1 4.2 4.3 4.5 4.4 4.9 5.1 5.7 6.3 6.6 6.9 6.8 6.4 6.2 5.9 5.8 5.7 5.4 5.1 5.0
4.9 4.7 4.5 4.5 4.4 4.3 4.1 4.3 4.4 4.7 5.4 5.4 5.9 6.0 6.6 7.3 7.3 7.3 7.3 7.0 6.6 6.7 6.6 6.3 6.1 5.9 5.7
4.9 4.7 4.7 4.6 4.4 4.4 4.5 4.7 5.0 5.5 5.9 5.9 6.5 6.7 6.9 7.2 7.4 7.3 7.3 7.2 7.3 7.4 7.2 6.8 6.6 6.1 5.8
4.6 4.6 4.5 4.6 4.7 4.8 5.1 5.5 5.8 6.2 6.3 6.4 6.7 6.8 7.1 7.5 7.6 7.6 7.4 7.4 7.5 7.5 7.3 7.1 7.0 6.7 6.8
4.4 4.3 4.5 4.8 5.0 5.4 5.9 6.1 6.3 6.5 6.5 6.7 7.0 7.2 7.4 7.5 7.7 7.6 7.5 7.8 7.6 7.4 7.3 7.2 7.0 7.1 7.3
4.4 4.8 5.0 5.1 5.4 5.8 6.1 6.3 6.7 6.9 6.8 6.8 7.1 7.3 7.5 7.4 7.4 7.5 7.3 7.3 7.4 7.2 7.0 7.4 7.1 7.1 7.1
4.9 5.1 5.3 5.6 5.9 6.0 6.2 6.3 6.6 6.8 7.1 7.0 7.1 7.2 7.3 7.4 7.4 7.2 7.1 7.2 7.2 7.2 6.8 7.3 7.4 7.1 7.7
5.2 5.3 5.8 6.0 6.0 6.1 6.1 6.3 6.7 6.9 7.0 7.1 7.2 7.4 7.6 7.6 7.2 7.3 7.1 7.0 7.0 6.8 6.7 6.9 7.5 7.3 7.8
5.5 5.8 6.0 5.9 6.0 6.1 6.3 6.6 6.8 6.9 7.0 7.1 7.1 7.2 7.5 7.7 7.5 7.0 6.9 7.0 6.9 6.8 6.6 6.9 7.2 7.4 7.8
Wind_Speed
3 4 7 5 9 11 12 13 15 16 16 17 18 20 21 21 22 25 26 27 27 26 26 28 30 29 29
2 3 2 3 3 4 9 9 16 15 18 19 17 22 21 23 26 26 26 27 25 25 29 28 29 29 30
3 2 2 2 2 3 3 9 13 13 18 18 19 20 23 27 25 25 27 25 26 28 28 30 31 30 31
2 2 2 4 1 1 3 2 3 14 16 18 17 22 23 24 24 25 26 27 27 29 32 31 30 30 30
3 2 3 3 2 2 2 3 4 5 4 9 14 16 16 17 19 23 26 29 31 31 29 30 32 32 32
2 3 4 3 2 3 2 3 4 6 5 10 11 6 14 17 23 26 31 30 29 29 31 31 31 32 32
3 4 3 3 3 4 3 3 4 6 6 8 4 5 15 17 23 30 29 28 30 31 31 32 33 32 34
3 5 6 8 6 5 4 4 4 5 6 6 5 7 12 18 24 25 23 27 29 31 33 32 32 32 33
11 13 15 14 14 4 4 4 6 4 2 4 2 9 8 9 16 18 26 26 30 31 34 33 32 33 26
9 13 11 10 11 8 2 2 3 6 2 5 7 5 8 4 9 17 16 25 29 33 32 32 30 21 15
5 4 5 7 9 9 8 2 5 7 9 6 6 7 6 10 4 11 14 17 21 23 27 28 30 29 11
3 3 3 3 4 11 14 14 14 12 16 12 4 7 9 11 11 8 11 16 16 12 18 24 28 29 31
2 2 1 6 10 8 12 15 15 17 17 18 9 8 7 8 10 10 13 8 14 6 12 9 11 17 13
1 3 5 4 5 4 6 6 6 5 14 17 16 8 7 8 8 12 10 7 10 10 9 9 15 18 13
4 5 6 5 5 4 3 5 4 6 7 6 14 16 12 11 10 10 9 9 8 9 10 10 11 9 10
5 4 5 6 6 4 3 3 7 7 7 8 6 6 7 7 15 9 7 3 8 10 9 8 9 8 15
4 5 6 4 9 6 4 6 6 7 8 7 5 6 10 11 6 13 5 9 8 8 7 7 9 9 7
Wind_Direction
21 355 16 24 4 13 360 339 3 348 340 337 338 339 337 333 335 330 330 330 329 328 328 329 326 323 322
306 335 344 331 343 2 338 355 343 330 338 332 336 333 330 333 330 329 329 329 326 329 325 325 324 322 320
286 304 296 307 321 326 334 333 321 334 330 327 328 329 329 328 326 330 327 322 324 321 323 321 320 319 317
316 299 277 284 321 311 332 318 317 324 319 315 333 322 321 322 323 323 321 322 324 324 320 317 317 316 313
324 328 314 337 342 300 316 295 300 293 296 321 321 314 309 315 319 316 323 326 320 316 319 322 319 316 311
306 312 293 300 345 336 318 326 313 311 336 308 311 298 306 319 314 321 320 319 321 325 321 318 313 310 312
239 264 290 320 337 316 292 286 291 306 303 300 317 310 312 311 315 313 315 318 322 321 318 318 314 312 311
223 264 277 289 276 260 264 277 291 290 311 303 320 300 308 304 303 306 310 318 319 320 319 317 316 312 309
341 320 311 304 308 318 314 304 303 297 276 289 316 308 299 294 283 308 312 314 316 315 318 317 317 318 312
322 313 307 320 323 315 293 283 297 313 281 324 311 324 314 244 327 305 313 309 313 313 314 317 318 314 314
296 303 323 320 312 328 344 345 313 291 294 304 312 306 277 303 298 306 301 308 307 309 311 312 314 316 311
309 314 314 330 348 328 314 310 300 289 301 291 276 291 292 291 297 316 308 304 304 305 304 310 313 312 311
340 340 288 299 310 318 310 308 303 298 295 297 285 285 285 295 298 306 308 315 302 299 306 306 309 311 312
315 297 292 286 286 284 299 294 290 292 290 291 291 285 291 283 284 295 297 297 304 301 297 306 310 306 301
312 311 303 296 288 292 289 296 285 300 299 296 285 276 272 279 286 282 289 291 287 300 311 310 311 304 306
308 292 294 296 292 283 266 268 290 290 288 292 300 303 294 272 258 275 280 262 304 303 306 297 308 312 317
295 292 293 320 317 295 290 292 292 288 284 288 287 293 306 305 294 282 307 297 299 301 301 299 302 303 305